When you browse on this site, cookies collect data to enhance your experience and personalize the content and advertising you see.
Visit our Privacy Policy to learn more. By continuing to use the site, you agree to this use of cookies and data.
  • In Hungary
  • List of Countries
  • For 7 days
  • Water Temperature
  • Weather Map
  • News
  • Weather Widgets
  • user-avatar
    Login

    Hourly Weather Dubrovka

    Today, 25 January, Saturday

    Time Temperature Precipitation Wind Pressure Humidity
    00:00 -1°C° 0.4 mm 7 mps 734 mmHg 96%
    01:00 -1°C° 0.1 mm 7 mps 734 mmHg 96%
    02:00 -1°C° 0.1 mm 7 mps 734 mmHg 96%
    03:00 -1°C° 0.1 mm 6 mps 734 mmHg 96%
    04:00 -1°C° 0.2 mm 6 mps 734 mmHg 96%
    05:00 -1°C° 0.2 mm 6 mps 734 mmHg 95%
    06:00 -1°C° 0.2 mm 6 mps 734 mmHg 94%
    07:00 -1°C° 0.1 mm 6 mps 734 mmHg 94%
    08:00 -2°C° 0.1 mm 6 mps 734 mmHg 94%
    09:00 -2°C° 0.1 mm 6 mps 735 mmHg 94%
    10:00 -2°C° 0 mm 6 mps 734 mmHg 94%
    11:00 -2°C° 0 mm 6 mps 734 mmHg 94%
    12:00 -1°C° 0 mm 6 mps 734 mmHg 94%
    13:00 -1°C° 0.1 mm 7 mps 734 mmHg 94%
    14:00 -1°C° 0.1 mm 8 mps 733 mmHg 93%
    15:00 -1°C° 0.1 mm 8 mps 733 mmHg 93%
    16:00 -2°C° 0 mm 8 mps 733 mmHg 91%
    17:00 -2°C° 0 mm 8 mps 733 mmHg 90%
    18:00 -3°C° 0 mm 9 mps 733 mmHg 89%
    19:00 -4°C° 0 mm 8 mps 733 mmHg 85%
    20:00 -3°C° 0 mm 7 mps 734 mmHg 81%
    21:00 -4°C° 0 mm 7 mps 734 mmHg 77%
    22:00 -4°C° 0 mm 7 mps 735 mmHg 77%
    23:00 -6°C° 0 mm 7 mps 735 mmHg 78%

    Tomorrow, 26 January, Sunday

    Time Temperature Precipitation Wind Pressure Humidity
    00:00 -6°C° 0 mm 7 mps 736 mmHg 78%
    01:00 -6°C° 0 mm 7 mps 737 mmHg 78%
    02:00 -6°C° 0 mm 7 mps 737 mmHg 78%
    03:00 -6°C° 0 mm 7 mps 738 mmHg 79%
    04:00 -6°C° 0 mm 7 mps 738 mmHg 80%
    05:00 -6°C° 0 mm 6 mps 739 mmHg 81%
    06:00 -6°C° 0 mm 6 mps 740 mmHg 82%
    07:00 -6°C° 0 mm 6 mps 741 mmHg 83%
    08:00 -6°C° 0 mm 5 mps 742 mmHg 83%
    09:00 -6°C° 0 mm 5 mps 743 mmHg 83%
    10:00 -6°C° 0 mm 5 mps 743 mmHg 82%
    11:00 -5°C° 0 mm 5 mps 744 mmHg 82%
    12:00 -5°C° 0 mm 5 mps 744 mmHg 81%
    13:00 -5°C° 0 mm 5 mps 744 mmHg 82%
    14:00 -5°C° 0 mm 5 mps 744 mmHg 82%
    15:00 -5°C° 0 mm 5 mps 744 mmHg 83%
    16:00 -5°C° 0 mm 5 mps 744 mmHg 82%
    17:00 -5°C° 0 mm 5 mps 744 mmHg 82%
    18:00 -5°C° 0 mm 5 mps 744 mmHg 82%
    19:00 -5°C° 0 mm 6 mps 743 mmHg 83%
    20:00 -4°C° 0 mm 6 mps 743 mmHg 85%
    21:00 -4°C° 0 mm 7 mps 743 mmHg 86%
    22:00 -4°C° 0.2 mm 7 mps 742 mmHg 88%
    23:00 -4°C° 0.2 mm 8 mps 742 mmHg 90%

    Day after tomorrow, 27 January, Monday

    Time Temperature Precipitation Wind Pressure Humidity
    00:00 -4°C° 0.2 mm 8 mps 742 mmHg 93%
    01:00 -4°C° 0 mm 8 mps 742 mmHg 93%
    02:00 -2°C° 0 mm 8 mps 742 mmHg 94%
    03:00 -2°C° 0 mm 7 mps 742 mmHg 94%
    04:00 -2°C° 0 mm 7 mps 742 mmHg 94%
    05:00 -2°C° 0 mm 7 mps 742 mmHg 93%
    06:00 -2°C° 0 mm 7 mps 742 mmHg 93%
    07:00 -2°C° 0 mm 7 mps 742 mmHg 94%
    08:00 -2°C° 0 mm 6 mps 742 mmHg 95%
    09:00 -2°C° 0 mm 6 mps 742 mmHg 96%
    10:00 -1°C° 0 mm 5 mps 743 mmHg 96%
    11:00 -1°C° 0 mm 5 mps 743 mmHg 97%
    12:00 -1°C° 0 mm 5 mps 743 mmHg 98%
    13:00 -1°C° 0.1 mm 4 mps 743 mmHg 98%
    14:00 -1°C° 0.1 mm 4 mps 743 mmHg 98%
    15:00 -1°C° 0.1 mm 4 mps 743 mmHg 97%
    16:00 -1°C° 0.1 mm 4 mps 744 mmHg 97%
    17:00 -1°C° 0.1 mm 4 mps 744 mmHg 98%
    18:00 -1°C° 0.1 mm 4 mps 744 mmHg 98%
    19:00 0°C° 0 mm 3 mps 744 mmHg 98%
    20:00 0°C° 0 mm 3 mps 744 mmHg 98%
    21:00 0°C° 0 mm 3 mps 744 mmHg 98%
    22:00 0°C° 0 mm 3 mps 744 mmHg 98%
    23:00 0°C° 0 mm 3 mps 744 mmHg 98%

    28 January, Tuesday

    Time Temperature Precipitation Wind Pressure Humidity
    00:00 0°C° 0 mm 3 mps 744 mmHg 98%
    01:00 0°C° 0.2 mm 3 mps 744 mmHg 98%
    02:00 0°C° 0.2 mm 3 mps 744 mmHg 98%
    03:00 0°C° 0.2 mm 3 mps 744 mmHg 98%
    04:00 0°C° 0 mm 3 mps 743 mmHg 98%
    05:00 0°C° 0 mm 3 mps 743 mmHg 98%
    06:00 0°C° 0 mm 3 mps 743 mmHg 98%
    07:00 -1°C° 0 mm 3 mps 743 mmHg 97%
    08:00 -1°C° 0 mm 3 mps 743 mmHg 97%
    09:00 -1°C° 0 mm 3 mps 743 mmHg 97%
    10:00 -1°C° 0.2 mm 3 mps 743 mmHg 97%
    11:00 -1°C° 0.2 mm 3 mps 743 mmHg 98%
    12:00 -1°C° 0.2 mm 3 mps 743 mmHg 98%
    13:00 0°C° 0.1 mm 3 mps 743 mmHg 98%
    14:00 0°C° 0.1 mm 3 mps 743 mmHg 98%
    15:00 0°C° 0.1 mm 3 mps 742 mmHg 98%
    16:00 0°C° 0.1 mm 3 mps 742 mmHg 98%
    17:00 -1°C° 0.1 mm 4 mps 742 mmHg 98%
    18:00 -1°C° 0.1 mm 4 mps 742 mmHg 97%
    19:00 -1°C° 0 mm 4 mps 742 mmHg 97%
    20:00 -1°C° 0 mm 4 mps 743 mmHg 97%
    21:00 -1°C° 0 mm 4 mps 743 mmHg 97%
    22:00 -1°C° 0.1 mm 4 mps 742 mmHg 97%
    23:00 -1°C° 0.1 mm 4 mps 742 mmHg 97%

    29 January, Wednesday

    Time Temperature Precipitation Wind Pressure Humidity
    00:00 0°C° 0.1 mm 3 mps 742 mmHg 98%
    01:00 0°C° 0.1 mm 3 mps 742 mmHg 98%
    02:00 0°C° 0.1 mm 3 mps 742 mmHg 98%
    03:00 -1°C° 0.1 mm 3 mps 742 mmHg 98%
    04:00 -1°C° 0 mm 3 mps 742 mmHg 97%
    05:00 -1°C° 0 mm 3 mps 742 mmHg 97%
    06:00 -1°C° 0 mm 3 mps 741 mmHg 97%
    07:00 -1°C° 0 mm 3 mps 741 mmHg 97%
    08:00 -1°C° 0 mm 3 mps 741 mmHg 98%
    09:00 -1°C° 0 mm 3 mps 741 mmHg 98%
    10:00 0°C° 0 mm 3 mps 741 mmHg 98%
    11:00 0°C° 0 mm 3 mps 741 mmHg 98%
    12:00 -1°C° 0 mm 4 mps 741 mmHg 98%
    13:00 -1°C° 0 mm 4 mps 740 mmHg 98%
    14:00 -1°C° 0 mm 4 mps 740 mmHg 98%
    15:00 0°C° 0 mm 3 mps 740 mmHg 99%
    16:00 -1°C° 0 mm 4 mps 739 mmHg 98%
    17:00 -1°C° 0 mm 4 mps 739 mmHg 97%
    18:00 -1°C° 0 mm 4 mps 739 mmHg 97%
    19:00 -1°C° 0.1 mm 5 mps 739 mmHg 97%
    20:00 -1°C° 0.1 mm 5 mps 738 mmHg 97%
    21:00 -2°C° 0.1 mm 6 mps 738 mmHg 97%
    22:00 -2°C° 0.1 mm 6 mps 737 mmHg 97%
    23:00 -2°C° 0.1 mm 6 mps 737 mmHg 97%

    30 January, Thursday

    Time Temperature Precipitation Wind Pressure Humidity
    00:00 -2°C° 0.1 mm 6 mps 737 mmHg 97%
    01:00 -2°C° 0.2 mm 6 mps 736 mmHg 97%
    02:00 -1°C° 0.2 mm 6 mps 735 mmHg 97%
    03:00 -1°C° 0.2 mm 6 mps 735 mmHg 97%
    04:00 -1°C° 0.4 mm 6 mps 734 mmHg 97%
    05:00 -1°C° 0.4 mm 6 mps 734 mmHg 97%
    06:00 0°C° 0.4 mm 5 mps 733 mmHg 97%
    07:00 0°C° 0.2 mm 5 mps 733 mmHg 97%
    08:00 0°C° 0.2 mm 5 mps 732 mmHg 97%
    09:00 0°C° 0.2 mm 5 mps 732 mmHg 97%
    10:00 0°C° 0.9 mm 5 mps 732 mmHg 97%
    11:00 0°C° 0.9 mm 4 mps 731 mmHg 98%
    12:00 -1°C° 0.9 mm 4 mps 731 mmHg 98%
    13:00 -1°C° 0.7 mm 4 mps 731 mmHg 98%
    14:00 -1°C° 0.7 mm 5 mps 731 mmHg 97%
    15:00 -2°C° 0.7 mm 6 mps 731 mmHg 97%
    16:00 -3°C° 0.3 mm 6 mps 731 mmHg 95%
    17:00 -3°C° 0.3 mm 7 mps 731 mmHg 92%
    18:00 -3°C° 0.3 mm 7 mps 732 mmHg 90%
    19:00 -3°C° 0 mm 6 mps 732 mmHg 90%
    20:00 -3°C° 0 mm 6 mps 732 mmHg 90%
    21:00 -3°C° 0 mm 6 mps 732 mmHg 90%
    22:00 -3°C° 0 mm 6 mps 732 mmHg 91%
    23:00 -4°C° 0 mm 6 mps 732 mmHg 92%
    Show more